Home   Weather   Faisalabad   Past weeks

Flag for Pakistan Past Weather in Faisalabad, Pakistan — Yesterday and Last 2 Weeks

Now
68 °F

Passing clouds.


Feels Like: 68 °F
Forecast: 59 / 76 °F
Wind: No wind

Location: Lahore Airport

Current Time: Feb 19, 2017 at 11:48:49 pm

Latest Report: Feb 19, 2017 at 10:55 pm


Visibility: 2 mi

Pressure: 29.83 "Hg

Humidity: 78%

Dew Point: 61 °F

Location of FaisalabadLocation

Past Weather in Faisalabad — Graph

°F

Faisalabad Temperature Yesterday

Maximum temperature yesterday: 82 °F (at 1:55 pm)
Minimum temperature yesterday: 59 °F (at 6:55 am)
Average temperature yesterday: 71 °F

High & Low Weather Summary for the Past Weeks

 TemperatureHumidityPressure
High82 °F (Feb 18, 1:55 pm)94% (Feb 4, 10:59 pm)30.27 "Hg (Feb 4, 10:59 pm)
Low41 °F (Feb 8, 9:00 pm)19% (Feb 10, 2:25 pm)29.83 "Hg (Feb 4, 10:00 pm)
Average63 °F60%30.06 "Hg
* Reported Feb 4 10:00 pm — Feb 19 10:25 pm, Faisalabad, Weather by CustomWeather, © 2017

Note: Actual official high and low records may vary slightly from our data, if they occured in-between our weather recording intervals... More about our weather records

Advertising

Faisalabad Weather History for the Previous 24 Hours

Scroll right to see more
 ConditionsComfort  
Time TempWeatherWind HumidityBarometerVisibility
10:25 pm
Sun, Feb 19
68 °FPassing clouds.No wind78%29.86 "Hg3 mi
9:55 pm68 °FPassing clouds.3 mph78%29.86 "Hg3 mi
9:25 pm72 °FPassing clouds.5 mph65%29.86 "Hg3 mi
8:55 pm72 °FPassing clouds.No wind65%29.86 "Hg3 mi
8:25 pm72 °FPassing clouds.No wind73%29.86 "Hg3 mi
7:55 pm73 °FPassing clouds.No wind69%29.86 "Hg3 mi
7:25 pm75 °FPassing clouds.6 mph61%29.86 "Hg3 mi
6:55 pm77 °FPassing clouds.6 mph57%29.86 "Hg3 mi
6:25 pm77 °FPassing clouds.3 mph57%29.86 "Hg4 mi
5:55 pm79 °FPassing clouds.6 mph54%29.86 "Hg4 mi
5:25 pm81 °FScattered clouds.6 mph54%29.86 "Hg4 mi
4:55 pm81 °FScattered clouds.10 mph54%29.89 "Hg4 mi
4:25 pm81 °FScattered clouds.9 mph48%29.86 "Hg4 mi
3:55 pm82 °FScattered clouds.10 mph45%29.89 "Hg4 mi
3:25 pm82 °FScattered clouds.9 mph45%29.89 "Hg4 mi
2:55 pm82 °FScattered clouds.13 mph45%29.89 "Hg4 mi
2:25 pm82 °FScattered clouds.9 mph45%29.92 "Hg4 mi
1:55 pm82 °FScattered clouds.10 mph45%29.92 "Hg4 mi
1:25 pm81 °FScattered clouds.10 mph51%29.95 "Hg4 mi
1:00 pm81 °FScattered clouds.N/A51%29.98 "Hg4 mi
12:30 pm81 °FPassing clouds.8 mph51%29.98 "Hg4 mi
11:55 am79 °FPassing clouds.7 mph51%30.01 "Hg4 mi
11:25 am75 °FPassing clouds.7 mph54%30.01 "Hg4 mi
10:55 am73 °FScattered clouds.8 mph57%30.01 "Hg4 mi
10:30 am72 °FScattered clouds.8 mph57%30.01 "Hg4 mi
9:55 am70 °FScattered clouds.9 mph60%30.01 "Hg4 mi
9:25 am68 °FScattered clouds.9 mph64%30.04 "Hg3 mi
8:55 am66 °FScattered clouds.6 mph68%30.01 "Hg2 mi
8:25 am66 °FScattered clouds.3 mph73%30.04 "Hg2 mi
7:55 am64 °FScattered clouds.6 mph78%30.01 "Hg2 mi
6:55 am63 °FFog.7 mph83%29.98 "Hg2 mi
6:25 am64 °FPassing clouds.9 mph78%30.01 "Hg2 mi
5:55 am64 °FPassing clouds.7 mph78%30.01 "Hg2 mi
5:25 am64 °FPassing clouds.6 mph78%30.01 "Hg2 mi
4:55 am64 °FPassing clouds.9 mph78%30.01 "Hg2 mi
4:25 am66 °FPassing clouds.No wind68%29.98 "Hg2 mi
3:55 am66 °FPassing clouds.No wind68%29.98 "Hg2 mi
3:25 am66 °FPassing clouds.No wind68%29.98 "Hg2 mi
2:55 am66 °FPassing clouds.5 mph68%29.98 "Hg2 mi
2:25 am66 °FPassing clouds.No wind68%30.01 "Hg2 mi
1:55 am66 °FPassing clouds.5 mph68%29.98 "Hg2 mi
1:25 am66 °FPassing clouds.3 mph64%30.01 "Hg2 mi
12:55 am68 °FPassing clouds.3 mph60%30.04 "Hg2 mi
12:25 am68 °FPassing clouds.3 mph64%30.04 "Hg2 mi
11:55 pm
Sat, Feb 18
70 °FPassing clouds.No wind60%30.04 "Hg2 mi
11:25 pm70 °FPassing clouds.3 mph60%30.04 "Hg2 mi
Weather by CustomWeather, © 2017

See weather overviewHow to use our weather pages